Flag for Ukraine Weather past 2 weeks in Chernobyl, Ukraine

Now
59 °F

Refreshingly cool.


Feels Like: 60 °F
Forecast: 47 / 72 °F
Wind: 3 mph from Northeast

Location: Hostomel

Current Time: Apr 25, 2015 at 11:56:53 AM

Latest Report: Apr 25, 2015 at 11:00 AM


Visibility: N/A

Pressure: 30.04 "Hg

Humidity: 51%

Dew point: 41 °F

Location of ChernobylLocation

Historic Weather in Chernobyl — Graph

°F

Chernobyl temperature yesterday

Maximum temperature yesterday: 72 °F (at 3:30 PM)
Minimum temperature yesterday: 48 °F (at 6:00 AM)
Average temperature yesterday: 62 °F

Past Weeks' High & Low Weather Summary

 TemperatureHumidityPressure
High73 °F (Apr 12, 2:00 PM)100% (Apr 15, 3:00 PM)30.24 "Hg (Apr 15, 3:00 PM)
Low30 °F (Apr 21, 1:00 AM)14% (Apr 10, 5:00 PM)29.53 "Hg (Apr 20, 7:30 AM)
Average49 °F59%29.88 "Hg
* Reported Apr 10 11:00 AM — Apr 25 11:00 AM, Chernobyl, Weather by CustomWeather, © 2015

Note: Actual official high and low records may vary slightly from our data, if they occured in-between our weather recording intervals... More about our weather records

Advertising

Chernobyl weather history for previous 24 hours

 ConditionsComfort  
Time TempWeatherWind HumidityBarometerVisibility
11:00 AM
Sat, Apr 25
59 °FRefreshingly cool.3 mph51%30.04 "HgN/A
10:00 AM57 °FCool.6 mph63%30.04 "HgN/A
9:00 AM55 °FRefreshingly cool.6 mph59%30.04 "HgN/A
8:00 AM54 °FCool.3 mph63%30.01 "HgN/A
7:00 AM48 °FCool.1 mph76%29.98 "HgN/A
6:00 AM48 °FCool.1 mph71%29.95 "HgN/A
5:00 AM50 °FCool.6 mph67%29.95 "HgN/A
4:00 AM52 °FCool.6 mph62%29.92 "HgN/A
3:00 AM52 °FCool.6 mph67%29.92 "HgN/A
2:00 AM54 °FCool.6 mph58%29.89 "HgN/A
1:00 AM55 °FRefreshingly cool.6 mph55%29.89 "HgN/A
12:00 AM59 °FRefreshingly cool.8 mph48%29.89 "HgN/A
11:00 PM
Fri, Apr 24
59 °FRefreshingly cool.8 mph51%29.86 "HgN/A
10:00 PM59 °FRefreshingly cool.8 mph48%29.86 "HgN/A
9:00 PM63 °FMild.8 mph37%29.86 "HgN/A
8:00 PM64 °FMild.8 mph34%29.83 "HgN/A
7:00 PM70 °FMild.10 mph27%29.80 "HgN/A
6:00 PM72 °FMild.17 mph27%29.80 "HgN/A
5:30 PM72 °FPassing clouds.15 mph27%29.80 "HgN/A
5:00 PM72 °FPassing clouds.13 mph27%29.80 "HgN/A
4:30 PM72 °FSunny.17 mph27%29.80 "Hg10 mi
4:00 PM72 °FPassing clouds.15 mph27%29.80 "HgN/A
3:30 PM72 °FPassing clouds.20 mph27%29.83 "HgN/A
3:00 PM70 °FPassing clouds.15 mph29%29.83 "HgN/A
2:30 PM70 °FPassing clouds.15 mph31%29.83 "HgN/A
2:00 PM70 °FPassing clouds.15 mph31%29.83 "HgN/A
1:30 PM68 °FPassing clouds.17 mph30%29.83 "HgN/A
1:00 PM68 °FPassing clouds.15 mph33%29.83 "HgN/A
12:30 PM66 °FPassing clouds.17 mph35%29.86 "HgN/A
12:00 PM64 °FSunny.17 mph37%29.86 "Hg10 mi
11:30 AM64 °FPassing clouds.10 mph43%29.86 "HgN/A
11:00 AM63 °FPassing clouds.13 mph42%29.86 "HgN/A
Weather by CustomWeather, © 2015

See weather overviewHow to use our weather pages